Location: Fort Wayne
(41.1310°N, 85.1290°W)
Time: 22:39:04
(UTC-04:00)

COSMOS 2406 - Visible Passes

Search period start: 28 July 2015 00:00
Search period end: 07 August 2015 00:00
Orbit: 845 x 864 km, 71.0° (Epoch: 27 July)

Date Brightness Start Highest point End Pass type
(mag) Time Alt. Az. Time Alt. Az. Time Alt. Az.
28 Jul 4.8 01:32:49 10° NW 01:36:27 24° W 01:36:27 24° W visible
28 Jul 3.7 23:36:37 10° NNW 23:42:07 48° ENE 23:43:21 42° E visible
29 Jul 4.8 01:21:39 10° NW 01:25:25 24° W 01:25:25 24° W visible
29 Jul 3.7 23:25:26 10° NNW 23:30:56 49° ENE 23:32:21 40° ESE visible
30 Jul 4.8 01:10:29 10° NW 01:14:26 23° W 01:14:26 23° W visible
30 Jul 3.6 23:14:14 10° NNW 23:19:45 50° ENE 23:21:24 39° ESE visible
31 Jul 4.8 00:59:19 10° NW 01:03:28 23° W 01:03:28 23° W visible
31 Jul 3.6 23:03:01 10° NNW 23:08:34 51° ENE 23:10:28 36° ESE visible
01 Aug 4.8 00:48:10 10° NW 00:52:33 23° WSW 00:52:33 23° WSW visible
01 Aug 3.6 22:51:50 10° NNW 22:57:23 52° ENE 22:59:35 34° ESE visible
02 Aug 4.8 00:37:00 10° NW 00:41:23 22° WSW 00:41:39 22° WSW visible
02 Aug 3.5 22:40:38 10° NNW 22:46:12 53° ENE 22:48:43 31° ESE visible
03 Aug 4.9 00:25:51 10° NW 00:30:11 22° WSW 00:30:49 21° WSW visible
03 Aug 3.5 22:29:26 10° NNW 22:35:01 53° ENE 22:37:54 28° SE visible
04 Aug 4.9 00:14:41 10° NW 00:18:59 22° WSW 00:20:00 20° WSW visible
04 Aug 3.5 22:18:14 10° NNW 22:23:50 54° ENE 22:27:08 24° SE visible
05 Aug 5.0 00:03:32 10° NW 00:07:48 21° WSW 00:09:14 19° WSW visible
05 Aug 3.5 22:07:02 10° NNW 22:12:38 55° ENE 22:16:25 21° SE visible
05 Aug 5.1 23:52:23 10° NW 23:56:36 21° WSW 23:58:30 17° SW visible
06 Aug 3.4 21:55:51 10° NNW 22:01:27 57° ENE 22:05:45 17° SE visible
06 Aug 5.2 23:41:14 10° NW 23:45:24 20° WSW 23:47:50 15° SW visible
